Location: La Pernelle
(49.6188°N, 1.2999°W)
Time: 09:14:00
(UTC+00:00)

Cosmos 1674 - Pass Details

Date: 12 June 2021
Orbit: 494 x 515 km, 82.5° (Epoch: 26 July)

Event Time Altitude Azimuth Distance (km) Brightness Sun altitude
Exits shadow 21:36:53 14° 158° (SSE) 1,471 4.4 -10.1°
Maximum altitude 21:39:45 38° 93° (E) 774 3.3 -10.3°
Drops below altitude 10° 21:43:14 10° 24° (NNE) 1,708 5.8 -10.6°
Sets 21:45:26 0° 17° (NNE) 2,595 6.9 -10.8°
